Location: East Horndon
(51.5667°N, 0.3500°E)
Time: 00:50:54
(UTC+00:00)

Cosmos 1140 Rocket - Pass Details

Date: 08 November 2025
Orbit: 740 x 761 km, 74.1° (Epoch: 13 December)

Event Time Altitude Azimuth Distance (km) Brightness Sun altitude
Exits shadow 04:15:59 52° 353° (N) 921 3.8 -26.3°
Maximum altitude 04:17:11 76° 64° (ENE) 771 3.5 -26.1°
Drops below altitude 10° 04:22:17 10° 150° (SSE) 2,248 6.2 -25.3°
Sets 04:24:38 0° 152° (SSE) 3,167 7.0 -25.0°
